EW9741 Weather Reports


Display with metric or nautical units.
time (UTC)temp
F
wind
direction
speed
MPH
gust
MPH
rain 1hr
in
rain 24hr
in
rain mn
in
humidity
%
barometer
mb
20260503221610 61 297 0.0 13.0 0.00 0.00 0.00 36 1013.3
20260503220008 61 285 2.0 12.0 0.00 0.00 0.00 37 1013.4
20260503214508 60 237 0.0 10.0 0.00 0.00 0.00 38 1013.3
20260503213002 60 276 0.0 8.0 0.00 0.00 0.00 37 1013.5
20260503211558 60 199 0.0 0.0 0.00 0.00 0.00 36 1014.0
20260503210100 59 259 0.0 0.0 0.00 0.00 0.00 37 1014.2
20260503204527 60 245 1.0 10.0 0.00 0.00 0.00 36 1014.3
20260503203029 60 211 0.0 10.0 0.00 0.00 0.00 37 1014.1
20260503201556 60 99 4.0 16.0 0.00 0.00 0.00 36 1014.4
20260503200054 60 169 0.0 8.0 0.00 0.00 0.00 35 1014.4
20260503194606 61 300 0.0 0.0 0.00 0.00 0.00 37 1014.6
20260503193048 60 242 0.0 13.0 0.00 0.00 0.00 36 1015.1
20260503191546 61 207 3.0 19.0 0.00 0.00 0.00 35 1015.1
20260503190052 61 109 1.0 11.0 0.00 0.00 0.00 35 1015.4
20260503184541 60 203 0.0 18.0 0.00 0.00 0.00 37 1015.8
20260503183045 60 229 0.0 14.0 0.00 0.00 0.00 39 1015.9
20260503181539 60 252 0.0 0.0 0.00 0.00 0.00 39 1016.1
20260503180038 59 27 0.0 16.0 0.00 0.00 0.00 36 1016.4
20260503174534 59 240 0.0 0.0 0.00 0.00 0.00 35 1016.4
20260503173056 59 252 0.0 0.0 0.00 0.00 0.00 37 1016.7
20260503171532 59 186 0.0 0.0 0.00 0.00 0.00 36 1017.1
20260503081505 36 168 0.0 0.0 0.00 0.00 0.00 84 1017.1
20260503071558 37 238 0.0 0.0 0.00 0.00 0.00 79 1016.9
20260503054550 38 250 0.0 0.0 0.00 0.00 0.00 74 1017.4
20260503053050 37 262 0.0 0.0 0.00 0.00 0.00 75 1017.4
20260503051550 38 217 0.0 0.0 0.00 0.00 0.00 75 1017.5
20260503050047 37 184 0.0 0.0 0.00 0.00 0.00 77 1017.5
20260503044548 37 273 0.0 0.0 0.00 0.00 0.00 78 1017.5
20260503043046 37 24 0.0 0.0 0.00 0.00 0.00 78 1017.5
20260503041546 37 24 0.0 0.0 0.00 0.00 0.00 80 1017.5
20260503040042 37 24 0.0 0.0 0.00 0.00 0.00 79 1017.5
20260503034545 37 24 0.0 0.0 0.00 0.00 0.00 79 1017.5
20260503033040 37 24 0.0 0.0 0.00 0.00 0.00 78 1017.5
20260503031548 38 24 0.0 0.0 0.00 0.00 0.00 78 1017.5
20260503030035 38 24 0.0 0.0 0.00 0.00 0.00 77 1017.5
20260503024533 38 24 0.0 0.0 0.00 0.00 0.00 77 1017.6
20260503023031 39 24 0.0 0.0 0.00 0.00 0.00 72 1017.5
20260503021526 40 24 0.0 0.0 0.00 0.00 0.00 69 1017.4
20260503020019 42 24 0.0 0.0 0.00 0.00 0.00 65 1017.3
20260503014517 44 24 0.0 0.0 0.00 0.00 0.00 65 1017.2
20260503013023 44 24 0.0 0.0 0.00 0.00 0.00 58 1017.1
20260503011509 45 49 0.0 0.0 0.00 0.00 0.00 56 1016.8
20260503010005 46 13 0.0 0.0 0.00 0.00 0.00 54 1016.8
20260503004502 46 11 0.0 0.0 0.00 0.00 0.00 53 1016.6
20260503003103 47 43 0.0 1.0 0.00 0.00 0.00 51 1016.5
20260503001556 48 14 0.0 0.0 0.00 0.00 0.00 49 1016.3
20260503000107 49 42 0.0 0.0 0.00 0.00 0.00 47 1016.2
20260502234520 50 320 0.0 0.0 0.00 0.00 0.00 46 1016.0
20260502233018 51 46 0.0 1.0 0.00 0.00 0.00 44 1015.8
20260502231609 50 11 0.0 0.0 0.00 0.00 0.00 44 1015.8
20260502230045 51 312 0.0 2.0 0.00 0.00 0.00 42 1015.8
20260502224549 52 27 0.0 11.0 0.00 0.00 0.00 43 1015.7
20260502223040 51 4 0.0 8.0 0.00 0.00 0.00 43 1015.7